Regional Weather Roundup
Issued by NWS

Home | Current Version | Previous Version | Graphics & Text | Print | Product List | Glossary On
Versions: 1 2 3 4 5 6 7 8 9 10 11 12 13 14 15 16 17 18 19 20 21 22 23 24 25 26 27 28 29 30 31 32 33 34 35 36 37 38 39 40 41 42 43 44 45 46 47 48 49
275
ASUS45 KCYS 060810
RWRWY

WYOMING REGIONAL WEATHER ROUNDUP
NATIONAL WEATHER SERVICE CHEYENNE WY
100 AM MST TUE DEC 06 2016

NOTE:  "FAIR" INDICATES FEW OR NO CLOUDS BELOW 12,000 FEET
WITH NO SIGNIFICANT WEATHER AND/OR OBSTRUCTIONS TO VISIBILITY.

WYZ001-060900-
YELLOWSTONE NATIONAL PARK

CITY           SKY/WX    TMP DP  RH WIND       PRES   REMARKS
LK YELLOWSTONE   N/A      3  -1  83 VRB6      29.82S WCI  -8
W YELLOWSTONE  NOT AVBL

$$
WYZ002>013-054>058-071-098>099-060900-
NORTHERN WYOMING

CITY           SKY/WX    TMP DP  RH WIND       PRES   REMARKS
JACKSON        NOT AVBL
CODY           FAIR       5  -1  76 NE3       29.90F
GREYBULL       FAIR      10   5  80 CALM      29.99S
WORLAND        FAIR       3   0  87 SE5       29.97F WCI  -6
SHERIDAN       CLOUDY     7   1  76 S5        29.99S WCI  -2
BUFFALO        FAIR       5  -2  72 NW6       29.92S WCI  -6
GILLETTE       FAIR       2  -1  88 W13       29.95R WCI -15
HULETT         PTSUNNY    9   1  72 MISG      29.95R
NEWCASTLE      FAIR       5   0  78 NW8       29.95F WCI  -8

$$
WYZ014>020-022>026-101>103-060900-
CENTRAL WYOMING

CITY           SKY/WX    TMP DP  RH WIND       PRES   REMARKS
BIG PINEY      FAIR     -17 -21  82 CALM      29.91F
PINEDALE       FAIR     -15 -22  70 W12       29.92F WCI -36
DUBOIS         FAIR      -4 -11  71 MISG      29.81F
LANDER         FAIR       4  -8  57 SE5       29.91F WCI  -5
RIVERTON       FAIR       6  -4  63 W8        29.92F WCI  -7
CASPER         FAIR       0  -5  79 SW12      29.93F WCI -17
DOUGLAS        FAIR       1  -3  83 SE3       29.94S

$$
WYZ021-027>030-104>119-060900-
SOUTHERN WYOMING

CITY           SKY/WX    TMP DP  RH WIND       PRES   REMARKS
EVANSTON       FAIR      -1 -16  48 CALM      29.88F
KEMMERER         N/A     -6 -13  71 NW8       29.87F WCI -21
FORT BRIDGER   FAIR       8 -15  34 CALM      29.92F
ROCK SPRINGS   FAIR       3  -8  60 SW5       29.92F WCI  -6
DIXON          FAIR      -2 -10  67 NE3       29.99S
RAWLINS        FAIR       3 -10  54 CALM      29.89F
SARATOGA       FAIR       1  -9  60 SW8       29.89F WCI -12
LARAMIE        FAIR       4 -10  52 NW13      29.84F WCI -13
CHEYENNE       FAIR      11  -7  44 W18G25    29.88S WCI  -7
TORRINGTON     FAIR      12   4  70 NW12      29.96S WCI  -2
PINE BLUFFS    FAIR      10   5  79 N9G17     29.95R WCI  -2

$$




USA.gov is the U.S. government's official web portal to all federal, state and local government web resources and services.